SCP
0 0 0 0 0 0 0 0 0 0 0 0 0 0 0 0 0 0 0 0 0 0 0 0 0 0 0 0 0 0 0 0 0 0 0 0 0 0 0 0 0 0 0 0
0 0 0 0 0 0 0 0 0 0 0 0 0 0 0 0 0 0 0 0 0 0 0 0 0 0 0 0 0 0 0 0 0 0 0 0 0 0 0 0 0 0 0 0
0 0 0 0 0 0 0 0 0 0 0 0 0 0 0 0 0 0 0 0 0 0 0 0 0 0 0 0 0 0 0 0 0 0 0 0 0 0 0 0 0 0 0 0
0 0 0 0 0 0 0 0 0 0 0 0 0 0 0 0 0 0 0 0 0 0 0 0 0 0 0 0 0 0 0 0 0 0 0 0 0 0 0 0 0 0 0 0
0 0 0 0 0 0 0 0 0 0 0 0 0 0 0 0 0 0 0 0 0 0 0 0 0 0 0 0 0 0 0 0 0 0 0 0 0 0 0 0 0 0 0 0
0 0 0 0 0 0 0 0 0 0 0 0 0 0 0 0 0 0 0 0 0 0 0 0 0 0 0 0 0 0 0 0 0 0 0 0 0 0 0 0 0 0 0 0
0 0 0 0 0 0 0 0 0 0 0 0 0 0 0 0 0 0 0 0 0 0 0 0 0 0 0 0 0 0 0 0 0 0 0 0 0 0 0 0 0 0 0 0
0 0 0 0 0 0 0 0 0 0 0 0 0 0 0 0 0 0 0 0 0 0 0 0 0 0 0 0 0 0 0 0 0 0 0 0 0 0 0 0 0 0 0 0
0 0 0 0 0 0 0 0 0 0 0 0 0 0 0 0 0 0 0 0 0 0 0 0 0 0 -0 -0 0 0 0 0 0 0 0 0 0 0 0 0 0 0 0 0
0 0 0 0 0 0 0 0 0 0 0 0 0 0 0 0 0 0 0 0 0 0 0 0 0 0 0 0 0 0 0 0 0 0 0 0 0 0 0 0 0 0 0 0
0 0 0 0 0 0 0 0 0 0 0 0 0 0 0 0 0 0 0 0 0 0 0 0 0 0 0 0 0 0 0 0 0 0 0 0 0 0 0 0 0 0 0 0
0 0 0 0 0 0 0 0 0 0 0 0 0 0 0 0 0 0 0 0 0 0 0 0 0 0 0 0 0 0 0 0 0 0 0 0 0 0 0 0 0 0 0 0
0 0 0 0 0 0 0 0 0 0 0 0 0 0 0 0 0 0 0 0 0 0 0 0 0 0 0 0 0 0 0 0 0 0 0 0 0 0 0 0 0 0 0 0
0 0 0 0 0 0 0 0 0 0 0 0 0 0 0 0 0 0 0 0 0 0 0 0 0 0 0 0 0 0 0 0 0 0 0 0 0 0 0 0 0 0 0 0
0 0 0 0 0 0 0 0 0 0 0 0 0 0 0 0 0 0 0 0 0 0 0 0 0 0 0 0 0 0 0 0 0 0 0 0 0 0 0 0 0 0 0 0
0 0 0 0 0 0 0 0 0 0 0 0 0 0 0 0 0 0 0 0 0 0 0 0 0 0 0 0 0 0 0 0 0 0 0 0 0 0 0 0 0 0 0 0
0 0 0 0 0 0 0 0 0 0 0 0 0 0 0 0 0 0 0 0 0 0 0 0 0 0 0 0 0 0 0 0 0 0 0 0 0 0 0 0 0 0 0 0
0 0 0 0 0 0 0 0 0 0 0 0 0 0 0 0 0 0 0 0 0 0 0 0 0 0 0 0 0 0 0 0 0 0 0 0 0 0 0 0 0 0 0 0
0 0 0 0 0 0 0 0 0 0 0 0 0 0 0 0 0 0 0 0 0 0 0 0 0 0 0 0 0 0 0 0 0 0 0 0 0 0 0 0 0 0 0 0
0 0 0 0 0 0 0 0 0 0 0 0 0 0 0 0 0 0 0 0 0 0 0 0 0 0 0 0 0 0 0 0 0 0 0 0 0 0 0 0 0 0 0 0
0 0 0 0 0 0 0 0 0 0 0 0 0 0 0 0 0 0 0 0 0 0 0 0 0 0 0 0 0 0 0 0 0 0 0 0 0 0 0 0 0 0 0 0
0 0 0 0 0 0 0 0 0 0 0 0 0 0 0 0 0 0 0 0 0 0 0 0 0 0 0 0 0 0 0 0 0 0 0 0 0 0 0 0 0 0 0 0
0 0 0 0 0 0 0 0 0 0 0 0 0 0 0 0 0 0 0 0 0 0 0 0 0 0 0 0 0 0 0 0 0 0 0 0 0 0 0 0 0 0 0 0
0 0 0 0 0 0 0 0 0 0 0 0 0 0 0 0 0 0 0 0 0 0 0 0 0 0 0 0 0 0 0 0 0 0 0 0 0 0 0 0 0 0 0 0
0 0 0 0 0 0 0 0 0 0 0 0 0 0 0 0 0 0 0 0 0 0 0 0 0 0 0 0 0 0 0 0 0 0 0 0 0 0 0 0 0 0 0 0
0 0 0 0 0 0 0 0 0 0 0 0 0 0 0 0 0 0 0 0 0 0 0 0 0 0 0 0 0 0 0 0 0 0 0 0 0 0 0 0 0 0 0 0
0 0 0 0 0 0 0 0 0 0 0 0 0 0 0 0 0 0 0 0 0 0 0 0 0 0 0 0 0 0 0 0 0 0 0 0 0 0 0 0 0 0 0 0
Wind_Speed
2 3 6 7 10 13 13 14 13 11 11 12 11 10 7 6 5 5 4 4 4 4 4 4 5 5 5 5 6 6 6 6 6 6 7 7 7 7 7 6 6 6 6 7
2 2 2 3 8 13 14 11 11 7 9 6 6 5 5 6 6 5 4 3 3 3 3 4 4 5 5 6 6 5 5 5 5 6 6 6 7 7 7 7 7 6 6 7
4 4 2 10 13 13 9 9 10 14 11 6 6 8 8 7 6 6 4 3 2 2 2 2 3 4 5 6 5 5 5 5 5 6 7 7 7 7 7 7 7 7 7 6
5 6 12 9 3 10 11 10 10 7 5 9 9 6 4 5 7 6 4 3 2 1 2 2 3 4 4 4 5 5 5 6 6 7 8 8 7 7 7 6 6 7 7 7
5 6 7 7 4 7 9 10 9 9 6 5 7 6 1 2 4 4 4 2 1 0 1 2 3 4 5 5 5 6 6 7 7 8 9 9 9 9 8 7 7 7 7 7
5 6 9 7 3 4 5 7 5 9 10 10 10 6 5 5 4 4 3 2 1 1 1 3 3 4 5 6 6 7 7 8 8 8 8 9 9 9 7 7 8 7 7 7
6 5 9 7 2 6 7 9 2 6 8 10 7 4 6 7 4 3 2 1 1 1 2 3 3 4 5 6 6 6 7 8 8 7 8 8 8 7 7 7 7 7 8 7
7 6 11 5 7 9 6 3 4 5 6 7 6 6 6 5 4 3 1 1 1 2 3 3 3 4 5 6 6 6 7 8 8 8 7 7 8 8 6 6 7 8 7 8
9 8 2 5 4 2 5 6 5 5 6 8 7 5 5 4 2 1 0 1 2 2 4 4 3 3 5 6 7 7 8 8 8 8 7 7 7 8 7 5 5 6 6 7
3 4 2 2 2 2 4 5 5 6 7 7 6 5 4 3 2 0 1 2 2 3 4 5 4 4 4 6 6 6 8 9 8 8 8 7 6 6 6 6 5 6 6 6
4 2 2 1 3 4 5 6 7 5 5 5 6 4 3 2 1 1 2 2 3 3 5 6 6 5 5 6 6 7 8 8 8 7 7 7 6 6 7 6 6 7 5 5
8 8 7 7 6 6 7 6 6 6 4 3 3 3 3 2 2 2 2 3 4 5 6 7 7 7 6 5 5 6 8 8 6 6 6 6 7 7 8 8 9 9 8 7
5 5 4 5 5 5 5 5 5 5 5 5 4 4 3 2 2 2 3 3 5 6 7 7 8 8 6 5 5 6 7 8 7 7 7 6 6 6 7 6 6 7 7 7
5 7 5 5 6 5 6 6 6 6 6 6 5 4 3 2 2 2 3 4 5 6 6 7 7 8 7 6 6 7 8 8 8 7 7 6 6 6 5 5 5 4 5 7
5 4 7 7 7 6 5 5 5 5 4 4 4 3 2 2 2 3 4 5 5 5 6 6 7 8 7 6 7 8 8 7 6 7 7 6 6 5 4 4 3 3 3 4
6 4 6 7 8 7 5 5 5 5 4 3 2 1 1 2 4 4 5 4 4 6 6 6 7 8 7 7 7 7 6 9 8 6 6 5 4 4 3 2 1 1 2 3
11 9 8 8 8 7 6 5 5 5 4 2 1 0 2 2 3 4 4 4 5 6 6 6 7 8 7 7 7 6 6 7 7 6 5 4 3 3 2 1 0 1 2 4
10 11 10 9 9 9 7 6 5 4 3 2 1 0 1 2 4 5 5 5 5 5 5 5 7 7 6 7 6 5 5 5 5 4 4 3 2 2 1 1 2 2 2 4
6 7 7 7 7 8 8 6 5 4 3 2 1 1 2 3 4 4 4 3 4 5 5 7 10 8 7 8 7 4 4 4 4 3 3 3 2 2 2 2 2 3 3 3
8 8 9 8 7 6 6 6 5 3 2 2 1 1 2 3 3 3 2 3 3 4 6 7 7 6 6 7 8 4 4 4 4 3 3 2 2 2 2 2 2 2 2 2
10 10 10 9 8 6 6 6 5 4 2 2 2 2 2 3 3 2 1 2 3 5 6 6 5 5 5 5 6 4 4 4 4 3 3 3 2 2 3 3 2 2 2 2
9 9 9 9 8 6 4 4 4 4 3 2 1 1 1 2 2 2 2 2 3 6 4 4 4 5 6 6 4 4 4 4 3 3 3 3 2 2 2 2 2 2 1 1
7 7 8 7 7 7 5 4 4 3 3 2 1 1 1 1 1 1 2 3 3 6 4 3 6 7 6 4 4 4 4 4 3 3 3 3 2 2 2 2 2 2 2 2
7 7 7 6 6 6 5 3 3 2 2 2 1 1 1 1 1 2 2 4 5 6 4 6 8 8 6 3 3 3 3 3 3 3 3 3 2 2 2 3 3 3 3 4
7 7 6 7 6 4 4 4 3 3 2 1 0 1 1 1 2 2 3 4 6 6 4 6 8 8 4 3 3 4 4 3 4 4 3 3 3 3 3 3 4 4 4 4
5 5 4 4 3 3 3 3 3 2 1 1 1 1 1 2 2 3 3 4 5 5 4 4 4 5 4 4 4 5 5 5 5 4 4 4 5 5 5 5 6 5 5 5
5 4 4 4 3 2 2 2 2 2 1 1 1 2 2 2 2 3 4 4 4 4 4 4 4 4 4 5 5 5 5 5 5 5 5 5 5 5 6 7 6 6 6 6
Wind_Direction
179 146 158 180 188 186 199 207 211 223 204 205 199 191 181 163 143 124 107 86 72 59 41 31 25 17 12 7 5 1 2 5 355 342 338 335 333 329 324 317 307 299 292 285
178 153 159 220 214 202 213 219 227 237 233 212 187 163 161 163 155 143 128 98 75 59 44 27 14 4 0 358 354 352 356 351 337 335 334 331 326 321 318 315 311 307 297 292
201 142 105 245 218 199 206 207 193 223 229 168 176 185 183 176 164 155 144 124 100 71 38 16 6 357 351 338 335 346 349 344 342 338 333 328 321 319 317 313 310 305 300 297
153 152 221 239 186 191 204 220 207 212 189 181 178 160 140 147 152 148 142 132 105 49 6 356 349 347 333 329 338 343 345 344 344 340 332 328 326 322 317 312 307 303 301 296
170 207 264 288 227 174 187 239 213 205 185 153 124 98 92 153 143 143 138 131 127 70 330 335 344 342 335 338 341 345 346 342 339 334 328 326 323 319 316 313 310 304 300 296
168 186 228 245 218 176 131 261 220 186 177 159 143 165 205 172 137 121 112 110 96 23 355 346 344 348 344 338 340 340 337 330 326 323 318 314 311 309 308 305 301 303 300 297
181 206 253 247 190 129 169 237 201 167 158 156 170 175 140 138 133 129 122 112 57 9 340 330 339 348 335 328 326 327 326 319 315 312 307 301 300 299 302 301 300 299 298 298
168 199 242 191 150 182 199 128 123 123 128 129 122 112 121 131 138 134 110 40 15 343 326 333 352 347 324 317 323 327 320 313 309 306 303 301 298 298 295 294 297 298 300 301
187 207 222 168 184 175 136 139 145 136 134 132 132 136 137 140 140 126 57 360 3 338 320 330 350 343 312 314 326 324 316 308 304 302 298 294 292 294 296 292 289 294 296 299
200 237 190 170 129 126 138 140 138 133 133 134 139 148 151 152 149 109 17 0 352 338 320 317 333 327 305 314 322 315 307 304 302 302 302 299 291 286 286 287 286 287 290 294
208 208 108 231 194 156 127 116 115 114 123 136 141 147 153 155 147 59 10 3 357 334 314 314 326 320 318 321 322 313 304 300 300 295 293 298 293 282 281 270 260 276 282 282
204 194 179 195 183 160 142 141 139 132 120 95 109 122 111 106 73 43 5 353 340 330 319 317 319 314 316 319 318 310 307 305 302 299 295 292 296 300 294 289 291 291 291 292
179 161 158 146 142 145 143 136 125 123 127 118 89 79 85 76 42 20 354 346 332 319 313 311 311 309 312 315 311 298 292 295 294 291 288 287 285 286 296 305 306 317 324 329
150 131 139 163 162 144 127 115 104 94 86 90 88 73 63 48 11 351 336 328 314 306 301 302 304 302 308 312 304 293 287 283 279 280 279 277 275 276 279 285 297 308 335 353
178 168 161 145 129 120 116 118 124 128 117 95 78 71 50 3 326 316 314 312 308 299 297 302 301 300 307 307 300 293 290 285 280 280 279 275 273 273 274 278 283 298 322 345
158 122 128 143 154 149 145 155 163 164 145 130 112 67 6 325 303 296 298 308 309 305 305 303 296 296 302 300 297 291 282 283 287 285 284 281 277 273 275 278 291 335 351 344
154 174 177 179 180 177 176 170 162 151 146 159 167 335 316 309 301 298 303 306 294 287 288 289 292 295 296 293 292 291 290 290 290 288 283 284 285 283 286 288 341 44 14 23
181 181 174 173 175 171 162 148 140 141 152 148 138 251 284 289 291 296 301 309 311 306 298 298 295 300 306 303 295 291 291 293 296 296 299 305 313 325 341 24 66 65 32 22
147 141 134 129 136 144 146 146 141 134 130 137 162 239 268 273 277 285 297 311 322 319 313 313 323 334 316 311 317 307 307 308 310 314 321 338 355 8 24 47 58 57 48 38
123 117 114 108 103 115 127 129 130 131 135 143 155 226 281 287 290 294 296 286 274 279 297 307 313 314 316 320 333 325 325 326 329 335 348 360 9 16 30 46 52 52 47 43
134 130 127 122 112 108 120 132 138 142 144 150 173 217 258 284 292 287 287 295 296 306 310 316 320 319 323 330 335 339 345 348 351 353 358 4 12 20 27 31 31 29 26 25
135 133 131 128 126 122 120 125 132 136 136 142 167 208 254 291 307 297 256 259 298 314 319 318 317 325 340 344 344 348 352 356 359 359 360 1 6 9 8 4 358 349 346 339
127 127 128 130 130 127 119 118 127 135 145 157 170 200 239 267 274 279 291 304 313 317 326 315 319 335 354 353 346 346 348 350 350 349 346 343 344 340 330 325 317 312 307 301
121 120 118 117 118 122 123 127 127 133 144 154 178 215 236 284 296 277 282 305 314 319 320 314 325 341 353 345 335 332 330 329 326 322 319 314 310 306 301 297 295 292 287 286
117 116 120 126 127 131 135 135 124 120 121 116 332 289 268 241 251 283 299 303 310 316 309 315 324 331 331 312 309 307 303 297 295 294 290 289 287 286 282 279 276 277 275 272
114 117 118 116 121 131 136 138 136 136 131 126 295 282 288 289 285 286 290 294 296 298 296 295 300 303 296 292 290 288 286 288 289 284 277 277 277 275 273 271 271 269 268 268
102 103 106 100 94 110 124 131 137 148 165 189 248 269 283 294 296 296 296 293 294 291 288 288 289 287 285 285 284 282 279 277 275 274 272 270 268 267 269 269 268 267 266 265